Portada
METAR-TAF:

METAR-TAF

Aeroports :

Oswego County Airport

Fulton, Nova York, Estats Units d'Amèrica

latitud: 43-21-03N, longitud: 076-23-17W, altitud: 145 m

Observació

L'informe es va fer fa 39 minuts, a les 19:54 UTC
Vent 5 kt del Oest/Nord-Oest
Temperatura 3°C
Humitat 65%
Pressió 1010 hPa
Visibilitat: 16.1 km
Núvols disperses a una alçada de 5000 ft
Cel cobert a una alçada de 6000 ft

METAR: KFZY 191954Z AUTO 30005KT 10SM SCT050 OVC060 03/M03 A2983 RMK AO2 SLP108 T00281033

Hora: 15:33 (20:33 UTC)


TAF: manca

Observacions i pronòstics meteorològics de més de 4000 aeroports (METAR i TAF).

Les estacions disponibles són els punts grocs i vermells al mapa.

Posi el ratolí al punt desitjat per veure el nom de l'estació.

Feu clic per veure les observacions i els pronòstics meteorològics.

Per canviar el mapa: feu clic els botons verds amb una creu de color negre per apropar; al botó verd amb un guió per allunyar la imatge; o en les fletxes verdes per a mapes adjacents.


METAR-TAF: